Zurück zum Katalog

GUANGCHUAN 01

AktivKommunikationVLEO
NORAD 62111·PAYLOAD·🇨🇳 China

Gestartet Nov 27, 2024 von Jiuquan Satellite Launch Center

Loading…

Nächste Überflüge (nächste 24 Stunden)

TLE

AktuellSource: Space-Track

Epoche: Sep 14, 2026, 13:19 UTC

1 62111U 24221A   26257.55491064  .00002094  00000-0  12895-3 0  9991
2 62111  49.9433  86.9645 0007077 299.4233  60.6011 15.14338042 99739

Verfolge GUANGCHUAN 01 in Echtzeit mit AllMySat

Download on the App Store